| time (UTC) | temp F | wind direction | speed MPH | gust MPH | rain 1hr in | rain 24hr in | rain mn in | humidity % | barometer mb |
| 20260831234020 | 65 | 272 | 4.0 | 8.0 | 0.00 | 1.97 | 0.00 | 84 | 1016.5 |
| 20260831233527 | 65 | 279 | 3.0 | 9.0 | 0.00 | 1.97 | 0.00 | 84 | 1016.5 |
| 20260831233015 | 65 | 278 | 5.0 | 9.0 | 0.00 | 1.97 | 0.00 | 84 | 1016.5 |
| 20260831232523 | 65 | 273 | 4.0 | 10.0 | 0.00 | 1.97 | 0.00 | 84 | 1016.4 |
| 20260831232030 | 65 | 269 | 5.0 | 10.0 | 0.00 | 1.97 | 0.00 | 84 | 1016.4 |
| 20260831231518 | 65 | 289 | 5.0 | 7.0 | 0.00 | 1.97 | 0.00 | 84 | 1016.4 |
| 20260831231039 | 65 | 281 | 3.0 | 9.0 | 0.00 | 1.97 | 0.00 | 84 | 1016.4 |
| 20260831230525 | 65 | 273 | 5.0 | 9.0 | 0.00 | 1.97 | 0.00 | 84 | 1016.3 |
| 20260831230025 | 64 | 254 | 4.0 | 9.0 | 0.00 | 1.97 | 0.00 | 84 | 1016.3 |
| 20260831225532 | 64 | 268 | 5.0 | 9.0 | 0.00 | 1.97 | 0.00 | 84 | 1016.4 |
| 20260831225037 | 64 | 280 | 4.0 | 8.0 | 0.00 | 1.97 | 0.00 | 84 | 1016.3 |
| 20260831224526 | 64 | 237 | 4.0 | 7.0 | 0.00 | 1.97 | 0.00 | 84 | 1016.4 |
| 20260831224033 | 64 | 261 | 4.0 | 7.0 | 0.00 | 1.97 | 0.00 | 84 | 1016.3 |
| 20260831223522 | 63 | 274 | 4.0 | 7.0 | 0.00 | 1.97 | 0.00 | 84 | 1016.3 |
| 20260831223049 | 63 | 259 | 2.0 | 5.0 | 0.00 | 1.97 | 0.00 | 83 | 1016.3 |
| 20260831222533 | 63 | 246 | 3.0 | 4.0 | 0.00 | 1.97 | 0.00 | 83 | 1016.2 |
| 20260831222020 | 63 | 286 | 1.0 | 3.0 | 0.00 | 1.97 | 0.00 | 82 | 1016.2 |
| 20260831221528 | 64 | 286 | 1.0 | 3.0 | 0.00 | 1.97 | 0.00 | 82 | 1016.1 |
| 20260831221017 | 64 | 286 | 2.0 | 3.0 | 0.00 | 1.97 | 0.00 | 81 | 1016.1 |
| 20260831220527 | 64 | 286 | 2.0 | 3.0 | 0.00 | 1.97 | 0.00 | 81 | 1016.1 |
| 20260831220024 | 64 | 286 | 0.0 | 1.0 | 0.00 | 1.97 | 0.00 | 80 | 1016.1 |
| 20260831215529 | 64 | 286 | 0.0 | 2.0 | 0.00 | 1.97 | 0.39 | 80 | 1016.1 |
| 20260831215017 | 64 | 286 | 0.0 | 4.0 | 0.00 | 1.97 | 0.39 | 80 | 1016.0 |
| 20260831214526 | 64 | 286 | 1.0 | 4.0 | 0.00 | 1.97 | 0.39 | 79 | 1015.9 |
| 20260831214015 | 64 | 286 | 1.0 | 3.0 | 0.00 | 1.97 | 0.39 | 79 | 1015.9 |
| 20260831213519 | 64 | 286 | 0.0 | 4.0 | 0.00 | 1.97 | 0.39 | 79 | 1015.9 |
| 20260831213047 | 64 | 286 | 1.0 | 4.0 | 0.00 | 1.97 | 0.39 | 79 | 1015.9 |
| 20260831212517 | 64 | 286 | 1.0 | 6.0 | 0.00 | 1.97 | 0.39 | 78 | 1015.8 |
| 20260831212025 | 65 | 274 | 2.0 | 9.0 | 0.00 | 1.97 | 0.39 | 78 | 1015.8 |
| 20260831211530 | 65 | 316 | 3.0 | 15.0 | 0.00 | 1.97 | 0.39 | 77 | 1015.8 |
| 20260831211018 | 66 | 303 | 8.0 | 16.0 | 0.00 | 1.97 | 0.39 | 76 | 1015.8 |
| 20260831210525 | 67 | 315 | 9.0 | 17.0 | 0.00 | 1.97 | 0.39 | 77 | 1015.7 |
| 20260831210029 | 68 | 262 | 10.0 | 17.0 | 0.00 | 1.97 | 0.39 | 78 | 1015.7 |
| 20260831205516 | 68 | 228 | 6.0 | 12.0 | 0.00 | 2.01 | 0.39 | 78 | 1015.4 |
| 20260831205041 | 68 | 242 | 7.0 | 12.0 | 0.00 | 2.01 | 0.39 | 78 | 1015.4 |
| 20260831204528 | 68 | 267 | 5.0 | 11.0 | 0.00 | 2.01 | 0.39 | 77 | 1015.3 |
| 20260831204016 | 68 | 257 | 6.0 | 11.0 | 0.00 | 2.01 | 0.39 | 77 | 1015.3 |
| 20260831203526 | 68 | 218 | 5.0 | 11.0 | 0.00 | 2.01 | 0.39 | 77 | 1015.2 |
| 20260831203030 | 68 | 257 | 6.0 | 11.0 | 0.00 | 2.01 | 0.39 | 77 | 1015.1 |
| 20260831202520 | 68 | 200 | 8.0 | 11.0 | 0.00 | 2.01 | 0.39 | 77 | 1015.1 |
| 20260831202026 | 68 | 232 | 4.0 | 10.0 | 0.00 | 2.01 | 0.39 | 77 | 1015.1 |
| 20260831201515 | 68 | 207 | 5.0 | 11.0 | 0.00 | 2.01 | 0.39 | 77 | 1015.0 |
| 20260831201043 | 68 | 130 | 4.0 | 12.0 | 0.00 | 2.01 | 0.39 | 77 | 1015.0 |
| 20260831200522 | 68 | 225 | 6.0 | 12.0 | 0.00 | 2.01 | 0.39 | 77 | 1015.0 |
| 20260831200023 | 68 | 216 | 6.0 | 14.0 | 0.00 | 2.01 | 0.39 | 77 | 1014.9 |
| 20260831195530 | 68 | 240 | 7.0 | 14.0 | 0.00 | 3.23 | 0.39 | 77 | 1015.0 |
| 20260831195020 | 68 | 236 | 5.0 | 14.0 | 0.00 | 3.23 | 0.39 | 77 | 1015.0 |
| 20260831194529 | 68 | 241 | 6.0 | 14.0 | 0.00 | 3.23 | 0.39 | 77 | 1014.9 |
| 20260831194015 | 68 | 250 | 5.0 | 13.0 | 0.00 | 3.23 | 0.39 | 77 | 1014.9 |
| 20260831193523 | 68 | 197 | 4.0 | 11.0 | 0.00 | 3.23 | 0.39 | 76 | 1014.9 |
| 20260831193029 | 68 | 242 | 4.0 | 11.0 | 0.00 | 3.23 | 0.39 | 76 | 1014.8 |
| 20260831192516 | 68 | 212 | 5.0 | 11.0 | 0.00 | 3.23 | 0.39 | 76 | 1014.8 |
| 20260831192025 | 68 | 239 | 6.0 | 11.0 | 0.00 | 3.23 | 0.39 | 76 | 1014.7 |
| 20260831191529 | 68 | 242 | 6.0 | 14.0 | 0.00 | 3.23 | 0.39 | 76 | 1014.7 |
| 20260831191015 | 68 | 241 | 7.0 | 14.0 | 0.00 | 3.23 | 0.39 | 76 | 1014.6 |
| 20260831190525 | 68 | 215 | 7.0 | 13.0 | 0.00 | 3.23 | 0.39 | 75 | 1014.6 |
| 20260831190022 | 68 | 251 | 5.0 | 14.0 | 0.00 | 3.23 | 0.39 | 75 | 1014.5 |
| 20260831185529 | 68 | 241 | 8.0 | 14.0 | 0.00 | 3.23 | 0.39 | 75 | 1014.4 |
| 20260831185017 | 68 | 265 | 8.0 | 13.0 | 0.00 | 3.23 | 0.39 | 75 | 1014.4 |
| 20260831184527 | 68 | 222 | 6.0 | 11.0 | 0.00 | 3.23 | 0.39 | 75 | 1014.3 |
| 20260831184016 | 68 | 257 | 5.0 | 11.0 | 0.00 | 3.23 | 0.39 | 75 | 1014.3 |
| 20260831183544 | 68 | 259 | 4.0 | 11.0 | 0.00 | 3.23 | 0.39 | 75 | 1014.2 |
| 20260831183052 | 68 | 250 | 5.0 | 14.0 | 0.00 | 3.23 | 0.39 | 74 | 1014.1 |
| 20260831182520 | 68 | 221 | 7.0 | 14.0 | 0.00 | 3.23 | 0.39 | 74 | 1014.0 |
| 20260831182046 | 68 | 241 | 8.0 | 14.0 | 0.00 | 3.23 | 0.39 | 74 | 1013.9 |
| 20260831181534 | 68 | 222 | 6.0 | 14.0 | 0.00 | 3.23 | 0.39 | 74 | 1013.9 |
| 20260831181017 | 68 | 270 | 9.0 | 14.0 | 0.00 | 3.23 | 0.39 | 73 | 1013.8 |
| 20260831180522 | 68 | 202 | 7.0 | 17.0 | 0.00 | 3.23 | 0.39 | 73 | 1013.7 |
| 20260831180022 | 68 | 259 | 8.0 | 17.0 | 0.00 | 3.23 | 0.39 | 73 | 1013.7 |
| 20260831175553 | 68 | 234 | 9.0 | 15.0 | 0.00 | 3.23 | 0.39 | 73 | 1013.7 |
| 20260831175021 | 69 | 250 | 8.0 | 16.0 | 0.00 | 3.23 | 0.39 | 73 | 1013.6 |
| 20260831174525 | 69 | 230 | 8.0 | 16.0 | 0.00 | 3.23 | 0.39 | 73 | 1013.6 |
| 20260831174014 | 69 | 271 | 8.0 | 18.0 | 0.00 | 3.23 | 0.39 | 73 | 1013.5 |
| 20260831173523 | 69 | 234 | 7.0 | 18.0 | 0.00 | 3.23 | 0.39 | 73 | 1013.5 |
| 20260831173028 | 69 | 253 | 10.0 | 18.0 | 0.00 | 3.23 | 0.39 | 72 | 1013.4 |
| 20260831172516 | 69 | 221 | 11.0 | 18.0 | 0.00 | 3.23 | 0.39 | 71 | 1013.3 |
| 20260831172017 | 69 | 257 | 9.0 | 16.0 | 0.00 | 3.23 | 0.39 | 71 | 1013.3 |
| 20260831171522 | 69 | 264 | 8.0 | 17.0 | 0.00 | 3.23 | 0.39 | 71 | 1013.2 |
| 20260831171029 | 69 | 219 | 11.0 | 17.0 | 0.00 | 3.23 | 0.39 | 72 | 1013.2 |
| 20260831170517 | 69 | 232 | 11.0 | 18.0 | 0.00 | 3.23 | 0.39 | 72 | 1013.1 |
| 20260831170033 | 69 | 246 | 8.0 | 19.0 | 0.00 | 3.23 | 0.39 | 72 | 1013.0 |
| 20260831165522 | 69 | 267 | 11.0 | 19.0 | 0.00 | 3.23 | 0.39 | 71 | 1012.9 |
| 20260831165030 | 69 | 250 | 12.0 | 19.0 | 0.00 | 3.23 | 0.39 | 71 | 1013.0 |
| 20260831164518 | 69 | 275 | 11.0 | 17.0 | 0.00 | 3.23 | 0.39 | 72 | 1012.8 |
| 20260831164050 | 69 | 234 | 10.0 | 15.0 | 0.00 | 3.23 | 0.39 | 72 | 1012.8 |
| 20260831163532 | 69 | 263 | 9.0 | 19.0 | 0.00 | 3.23 | 0.39 | 71 | 1012.8 |
| 20260831163018 | 69 | 256 | 11.0 | 20.0 | 0.00 | 3.23 | 0.39 | 71 | 1012.8 |
| 20260831162545 | 69 | 254 | 12.0 | 20.0 | 0.00 | 3.23 | 0.39 | 71 | 1012.7 |
| 20260831162033 | 69 | 248 | 10.0 | 20.0 | 0.00 | 3.23 | 0.39 | 71 | 1012.8 |
| 20260831161518 | 69 | 272 | 9.0 | 19.0 | 0.00 | 3.23 | 0.39 | 72 | 1012.7 |
| 20260831161051 | 69 | 282 | 9.0 | 19.0 | 0.00 | 3.23 | 0.39 | 72 | 1012.7 |
| 20260831160519 | 69 | 253 | 11.0 | 22.0 | 0.00 | 3.23 | 0.39 | 72 | 1012.7 |
| 20260831160020 | 69 | 232 | 12.0 | 22.0 | 0.00 | 3.23 | 0.39 | 71 | 1012.6 |
| 20260831155529 | 69 | 234 | 9.0 | 23.0 | 0.00 | 3.27 | 0.39 | 72 | 1012.6 |
| 20260831155030 | 69 | 241 | 14.0 | 22.0 | 0.00 | 3.27 | 0.39 | 71 | 1012.5 |
| 20260831154518 | 69 | 250 | 14.0 | 21.0 | 0.00 | 3.27 | 0.39 | 71 | 1012.4 |
| 20260831154041 | 69 | 252 | 13.0 | 21.0 | 0.00 | 3.27 | 0.39 | 72 | 1012.3 |
| 20260831153530 | 69 | 261 | 10.0 | 20.0 | 0.00 | 3.27 | 0.39 | 73 | 1012.4 |
| 20260831153034 | 69 | 271 | 11.0 | 20.0 | 0.00 | 3.27 | 0.39 | 73 | 1012.3 |
| 20260831152521 | 69 | 273 | 8.0 | 24.0 | 0.00 | 3.27 | 0.39 | 73 | 1012.3 |
| 20260831152029 | 69 | 263 | 13.0 | 24.0 | 0.00 | 3.27 | 0.39 | 73 | 1012.3 |
| 20260831151518 | 69 | 321 | 11.0 | 20.0 | 0.00 | 3.27 | 0.39 | 73 | 1012.2 |
| 20260831151025 | 68 | 227 | 12.0 | 20.0 | 0.00 | 3.27 | 0.39 | 73 | 1012.2 |
| 20260831150531 | 68 | 250 | 10.0 | 21.0 | 0.00 | 3.27 | 0.39 | 73 | 1012.2 |
| 20260831150014 | 68 | 256 | 12.0 | 20.0 | 0.00 | 3.27 | 0.39 | 74 | 1012.1 |
| 20260831145522 | 68 | 264 | 11.0 | 20.0 | 0.00 | 3.27 | 0.39 | 73 | 1012.0 |
| 20260831145031 | 68 | 317 | 9.0 | 21.0 | 0.00 | 3.27 | 0.39 | 72 | 1012.1 |
| 20260831144540 | 68 | 270 | 13.0 | 21.0 | 0.00 | 3.27 | 0.39 | 72 | 1012.0 |
| 20260831144024 | 68 | 224 | 11.0 | 23.0 | 0.00 | 3.27 | 0.39 | 72 | 1011.9 |
| 20260831143533 | 68 | 272 | 12.0 | 22.0 | 0.00 | 3.27 | 0.39 | 71 | 1011.7 |
| 20260831143021 | 68 | 250 | 14.0 | 22.0 | 0.00 | 3.27 | 0.39 | 71 | 1011.7 |
| 20260831142531 | 69 | 269 | 16.0 | 22.0 | 0.00 | 3.27 | 0.39 | 70 | 1011.6 |
| 20260831142020 | 69 | 242 | 14.0 | 21.0 | 0.00 | 3.27 | 0.39 | 70 | 1011.6 |
| 20260831141524 | 68 | 200 | 11.0 | 26.0 | 0.00 | 3.27 | 0.39 | 71 | 1011.4 |
| 20260831141031 | 68 | 243 | 15.0 | 26.0 | 0.00 | 3.27 | 0.39 | 71 | 1011.2 |
| 20260831140540 | 68 | 240 | 15.0 | 27.0 | 0.00 | 3.27 | 0.39 | 71 | 1011.2 |
| 20260831140018 | 69 | 285 | 12.0 | 27.0 | 0.00 | 3.27 | 0.39 | 70 | 1011.1 |
| 20260831135520 | 69 | 272 | 15.0 | 24.0 | 0.00 | 3.27 | 0.39 | 70 | 1011.0 |
| 20260831135025 | 68 | 249 | 15.0 | 23.0 | 0.00 | 3.27 | 0.39 | 71 | 1010.9 |
| 20260831134533 | 68 | 257 | 11.0 | 24.0 | 0.00 | 3.27 | 0.39 | 72 | 1010.9 |
| 20260831134041 | 68 | 263 | 16.0 | 25.0 | 0.00 | 3.27 | 0.39 | 72 | 1010.8 |
| 20260831133525 | 67 | 238 | 17.0 | 25.0 | 0.00 | 3.27 | 0.39 | 73 | 1010.7 |
| 20260831133032 | 67 | 223 | 13.0 | 22.0 | 0.00 | 3.27 | 0.39 | 73 | 1010.7 |
| 20260831132538 | 67 | 250 | 11.0 | 23.0 | 0.00 | 3.27 | 0.39 | 74 | 1010.7 |
| 20260831132051 | 67 | 275 | 12.0 | 23.0 | 0.00 | 3.27 | 0.39 | 72 | 1010.6 |
| 20260831131517 | 67 | 254 | 12.0 | 24.0 | 0.00 | 3.27 | 0.39 | 72 | 1010.6 |
| 20260831131018 | 68 | 244 | 13.0 | 24.0 | 0.00 | 3.27 | 0.39 | 71 | 1010.5 |
| 20260831130524 | 68 | 263 | 13.0 | 24.0 | 0.00 | 3.27 | 0.39 | 72 | 1010.5 |
| 20260831130048 | 68 | 261 | 13.0 | 22.0 | 0.00 | 3.27 | 0.39 | 73 | 1010.3 |
| 20260831125533 | 68 | 245 | 13.0 | 22.0 | 0.00 | 3.27 | 0.39 | 73 | 1010.3 |
| 20260831125018 | 68 | 231 | 14.0 | 23.0 | 0.00 | 3.27 | 0.39 | 73 | 1010.2 |
| 20260831124530 | 68 | 242 | 15.0 | 23.0 | 0.00 | 3.27 | 0.39 | 73 | 1010.2 |
| 20260831124019 | 67 | 241 | 12.0 | 22.0 | 0.00 | 3.27 | 0.39 | 73 | 1010.1 |
| 20260831123525 | 67 | 274 | 13.0 | 22.0 | 0.00 | 3.27 | 0.39 | 73 | 1010.0 |
| 20260831123046 | 67 | 275 | 11.0 | 22.0 | 0.00 | 3.27 | 0.39 | 73 | 1010.0 |
| 20260831122514 | 67 | 235 | 14.0 | 23.0 | 0.00 | 3.27 | 0.39 | 74 | 1009.9 |
| 20260831122041 | 67 | 221 | 15.0 | 26.0 | 0.00 | 3.27 | 0.39 | 75 | 1009.7 |
| 20260831121527 | 67 | 286 | 14.0 | 26.0 | 0.00 | 3.27 | 0.39 | 76 | 1009.7 |
| 20260831121034 | 67 | 264 | 12.0 | 23.0 | 0.00 | 3.27 | 0.39 | 78 | 1009.6 |
| 20260831120539 | 66 | 293 | 11.0 | 23.0 | 0.08 | 3.27 | 0.39 | 79 | 1009.7 |
| 20260831120016 | 66 | 223 | 11.0 | 21.0 | 0.71 | 3.27 | 0.39 | 81 | 1009.6 |
| 20260831115524 | 65 | 232 | 14.0 | 28.0 | 0.71 | 3.27 | 0.39 | 81 | 1009.5 |
| 20260831115030 | 65 | 218 | 16.0 | 28.0 | 0.71 | 3.27 | 0.39 | 83 | 1009.5 |
| 20260831114535 | 64 | 274 | 9.0 | 23.0 | 0.91 | 3.27 | 0.39 | 86 | 1009.4 |
| 20260831114020 | 64 | 266 | 13.0 | 24.0 | 0.98 | 3.27 | 0.39 | 87 | 1009.2 |
| 20260831113528 | 63 | 245 | 13.0 | 24.0 | 1.18 | 3.27 | 0.39 | 88 | 1009.2 |
| 20260831113017 | 63 | 281 | 13.0 | 23.0 | 1.34 | 3.27 | 0.39 | 89 | 1009.2 |
| 20260831112526 | 63 | 230 | 11.0 | 18.0 | 1.34 | 3.27 | 0.39 | 90 | 1009.1 |
| 20260831112055 | 63 | 242 | 10.0 | 20.0 | 1.34 | 3.27 | 0.39 | 90 | 1009.1 |
| 20260831111523 | 63 | 234 | 7.0 | 19.0 | 1.34 | 3.27 | 0.39 | 91 | 1008.9 |
| 20260831111028 | 62 | 248 | 10.0 | 19.0 | 1.38 | 3.27 | 0.39 | 89 | 1008.9 |
| 20260831110537 | 62 | 228 | 11.0 | 14.0 | 1.30 | 3.19 | 0.38 | 89 | 1009.0 |
| 20260831110014 | 62 | 268 | 4.0 | 9.0 | 0.67 | 2.56 | 0.25 | 89 | 1008.8 |
| 20260831105543 | 62 | 238 | 4.0 | 13.0 | 0.71 | 2.56 | 0.25 | 88 | 1008.8 |
| 20260831105028 | 62 | 244 | 6.0 | 16.0 | 0.71 | 2.56 | 0.25 | 87 | 1008.9 |
| 20260831104515 | 62 | 248 | 8.0 | 16.0 | 0.51 | 2.36 | 0.21 | 86 | 1009.0 |
| 20260831104021 | 63 | 244 | 9.0 | 17.0 | 0.43 | 2.28 | 0.20 | 85 | 1008.9 |
| 20260831103527 | 63 | 257 | 8.0 | 17.0 | 0.20 | 2.05 | 0.15 | 84 | 1008.9 |
| 20260831103016 | 63 | 251 | 7.0 | 19.0 | 0.08 | 1.93 | 0.13 | 83 | 1008.7 |
| 20260831102522 | 63 | 257 | 9.0 | 20.0 | 0.08 | 1.93 | 0.13 | 82 | 1008.6 |
| 20260831102031 | 64 | 257 | 10.0 | 20.0 | 0.08 | 1.93 | 0.13 | 81 | 1008.6 |
| 20260831101537 | 64 | 194 | 8.0 | 21.0 | 0.04 | 1.89 | 0.12 | 80 | 1008.5 |
| 20260831101016 | 64 | 208 | 12.0 | 21.0 | 0.04 | 1.89 | 0.12 | 80 | 1008.4 |
| 20260831100522 | 64 | 277 | 10.0 | 21.0 | 0.04 | 1.89 | 0.12 | 78 | 1008.3 |
| 20260831100022 | 65 | 142 | 9.0 | 17.0 | 0.04 | 1.89 | 0.12 | 79 | 1008.2 |
| 20260831095526 | 65 | 224 | 8.0 | 20.0 | 0.00 | 2.36 | 0.11 | 78 | 1008.2 |
| 20260831095014 | 66 | 274 | 9.0 | 20.0 | 0.00 | 2.36 | 0.11 | 76 | 1008.1 |
| 20260831094523 | 67 | 251 | 12.0 | 27.0 | 0.00 | 2.36 | 0.11 | 74 | 1008.1 |
| 20260831094030 | 67 | 262 | 13.0 | 27.0 | 0.00 | 2.36 | 0.11 | 72 | 1008.2 |
| 20260831093519 | 68 | 236 | 15.0 | 23.0 | 0.00 | 2.36 | 0.11 | 72 | 1007.9 |
| 20260831093042 | 68 | 188 | 9.0 | 19.0 | 0.00 | 2.36 | 0.11 | 74 | 1007.8 |
| 20260831092530 | 67 | 215 | 12.0 | 24.0 | 0.00 | 2.36 | 0.11 | 75 | 1007.8 |
| 20260831092018 | 67 | 209 | 12.0 | 25.0 | 0.00 | 2.36 | 0.11 | 75 | 1007.6 |
| 20260831091550 | 66 | 207 | 13.0 | 26.0 | 0.00 | 2.36 | 0.11 | 77 | 1007.6 |
| 20260831091017 | 66 | 200 | 13.0 | 26.0 | 0.00 | 2.36 | 0.11 | 79 | 1007.6 |
| 20260831090522 | 65 | 177 | 12.0 | 29.0 | 0.00 | 2.36 | 0.11 | 82 | 1007.4 |
| 20260831090023 | 66 | 199 | 13.0 | 22.0 | 0.00 | 2.36 | 0.11 | 84 | 1007.4 |
| 20260831085529 | 65 | 134 | 13.0 | 27.0 | 0.00 | 2.76 | 0.11 | 85 | 1007.4 |
| 20260831085016 | 65 | 169 | 15.0 | 28.0 | 0.00 | 2.76 | 0.11 | 86 | 1007.3 |
| 20260831084521 | 64 | 189 | 12.0 | 28.0 | 0.00 | 2.76 | 0.11 | 87 | 1007.0 |
| 20260831084053 | 64 | 178 | 10.0 | 29.0 | 0.00 | 2.76 | 0.11 | 88 | 1007.2 |
| 20260831083521 | 64 | 165 | 13.0 | 26.0 | 0.08 | 2.76 | 0.11 | 90 | 1007.0 |
| 20260831083028 | 64 | 196 | 13.0 | 29.0 | 0.12 | 2.76 | 0.11 | 90 | 1007.1 |
| 20260831082514 | 64 | 188 | 14.0 | 29.0 | 0.12 | 2.76 | 0.11 | 91 | 1007.1 |
| 20260831082019 | 64 | 218 | 12.0 | 31.0 | 0.12 | 2.76 | 0.11 | 91 | 1006.9 |
| 20260831081526 | 63 | 182 | 12.0 | 31.0 | 0.12 | 2.76 | 0.11 | 92 | 1007.0 |
| 20260831081033 | 63 | 169 | 12.0 | 28.0 | 0.12 | 2.76 | 0.11 | 93 | 1006.9 |
| 20260831080522 | 62 | 213 | 11.0 | 22.0 | 0.12 | 2.76 | 0.11 | 93 | 1006.9 |
| 20260831080024 | 62 | 163 | 12.0 | 22.0 | 0.12 | 2.76 | 0.11 | 93 | 1007.0 |
| 20260831075527 | 62 | 116 | 9.0 | 25.0 | 0.12 | 2.80 | 0.11 | 93 | 1006.9 |
| 20260831075030 | 62 | 172 | 9.0 | 23.0 | 0.12 | 2.80 | 0.11 | 93 | 1006.8 |
| 20260831074519 | 62 | 126 | 8.0 | 21.0 | 0.12 | 2.80 | 0.11 | 93 | 1006.7 |
| 20260831074022 | 62 | 158 | 12.0 | 25.0 | 0.12 | 2.80 | 0.11 | 93 | 1006.9 |
| 20260831073550 | 62 | 146 | 12.0 | 26.0 | 0.04 | 2.72 | 0.09 | 93 | 1006.8 |
| 20260831073018 | 61 | 161 | 12.0 | 26.0 | 0.04 | 2.68 | 0.09 | 93 | 1006.7 |
| 20260831072528 | 61 | 164 | 12.0 | 25.0 | 0.08 | 2.68 | 0.09 | 93 | 1006.7 |
| 20260831072015 | 61 | 130 | 9.0 | 21.0 | 0.08 | 2.68 | 0.09 | 93 | 1006.6 |
| 20260831071524 | 61 | 132 | 8.0 | 22.0 | 0.08 | 2.68 | 0.09 | 93 | 1006.7 |
| 20260831071051 | 61 | 103 | 10.0 | 22.0 | 0.08 | 2.68 | 0.09 | 93 | 1006.6 |
| 20260831070519 | 61 | 128 | 11.0 | 22.0 | 0.08 | 2.68 | 0.09 | 93 | 1006.6 |
| 20260831070021 | 61 | 157 | 11.0 | 27.0 | 0.08 | 2.68 | 0.09 | 93 | 1006.8 |
| 20260831065528 | 61 | 163 | 12.0 | 27.0 | 0.08 | 2.72 | 0.09 | 93 | 1006.7 |
| 20260831065030 | 61 | 153 | 8.0 | 16.0 | 0.08 | 2.72 | 0.09 | 94 | 1006.9 |
| 20260831064539 | 61 | 108 | 9.0 | 26.0 | 0.08 | 2.72 | 0.09 | 93 | 1006.9 |
| 20260831064019 | 61 | 185 | 10.0 | 25.0 | 0.08 | 2.72 | 0.09 | 93 | 1007.0 |
| 20260831063549 | 61 | 169 | 11.0 | 20.0 | 0.08 | 2.72 | 0.09 | 93 | 1006.8 |
| 20260831063054 | 61 | 192 | 9.0 | 17.0 | 0.08 | 2.68 | 0.08 | 93 | 1006.7 |
| 20260831062522 | 61 | 135 | 9.0 | 17.0 | 0.12 | 2.64 | 0.07 | 93 | 1006.8 |
| 20260831062027 | 61 | 154 | 7.0 | 17.0 | 0.16 | 2.64 | 0.07 | 93 | 1007.0 |
| 20260831061515 | 61 | 111 | 6.0 | 17.0 | 0.20 | 2.64 | 0.07 | 93 | 1007.1 |
| 20260831061020 | 61 | 178 | 8.0 | 22.0 | 0.28 | 2.64 | 0.07 | 93 | 1007.2 |
| 20260831060526 | 61 | 134 | 10.0 | 22.0 | 0.31 | 2.64 | 0.07 | 93 | 1007.2 |
| 20260831060052 | 61 | 158 | 6.0 | 17.0 | 0.35 | 2.64 | 0.07 | 93 | 1007.3 |
| 20260831055520 | 61 | 155 | 9.0 | 17.0 | 0.35 | 3.07 | 0.07 | 93 | 1007.4 |
| 20260831055028 | 61 | 170 | 7.0 | 11.0 | 0.35 | 3.07 | 0.07 | 92 | 1007.3 |
| 20260831054517 | 61 | 106 | 7.0 | 12.0 | 0.35 | 3.07 | 0.07 | 92 | 1007.0 |
| 20260831054021 | 62 | 140 | 5.0 | 12.0 | 0.35 | 3.07 | 0.07 | 92 | 1007.0 |
| 20260831053530 | 62 | 184 | 5.0 | 15.0 | 0.31 | 3.03 | 0.06 | 92 | 1006.9 |
| 20260831053018 | 62 | 190 | 8.0 | 15.0 | 0.28 | 2.99 | 0.06 | 92 | 1007.0 |
| 20260831052547 | 62 | 129 | 7.0 | 17.0 | 0.24 | 2.95 | 0.05 | 92 | 1006.9 |
| 20260831052029 | 62 | 174 | 9.0 | 16.0 | 0.20 | 2.91 | 0.04 | 92 | 1006.9 |
| 20260831051539 | 62 | 150 | 9.0 | 16.0 | 0.16 | 2.87 | 0.03 | 91 | 1007.0 |
| 20260831051025 | 62 | 162 | 8.0 | 13.0 | 0.08 | 2.80 | 0.02 | 92 | 1006.9 |
| 20260831050513 | 62 | 163 | 6.0 | 13.0 | 0.04 | 2.76 | 0.01 | 91 | 1006.9 |
| 20260831050016 | 62 | 120 | 5.0 | 18.0 | 0.00 | 2.72 | 0.00 | 91 | 1007.0 |
| 20260831045521 | 62 | 168 | 10.0 | 20.0 | 0.00 | 2.80 | 0.00 | 93 | 1007.1 |
| 20260831045052 | 62 | 110 | 9.0 | 19.0 | 0.00 | 2.80 | 0.00 | 91 | 1007.2 |
| 20260831044521 | 62 | 186 | 7.0 | 14.0 | 0.00 | 2.80 | 0.00 | 91 | 1007.2 |
| 20260831044029 | 62 | 130 | 5.0 | 14.0 | 0.00 | 2.80 | 0.00 | 91 | 1007.1 |
| 20260831043513 | 62 | 170 | 7.0 | 16.0 | 0.00 | 2.80 | 0.00 | 91 | 1007.1 |
| 20260831043021 | 62 | 162 | 8.0 | 16.0 | 0.00 | 2.80 | 0.00 | 91 | 1007.1 |
| 20260831042530 | 62 | 136 | 6.0 | 16.0 | 0.00 | 2.80 | 0.00 | 91 | 1007.0 |
| 20260831042018 | 62 | 150 | 7.0 | 16.0 | 0.00 | 2.80 | 0.00 | 91 | 1006.9 |
| 20260831041527 | 62 | 100 | 4.0 | 16.0 | 0.00 | 2.80 | 0.00 | 91 | 1006.9 |
| 20260831041027 | 62 | 134 | 6.0 | 12.0 | 0.00 | 2.80 | 0.00 | 91 | 1007.2 |
| 20260831040517 | 62 | 164 | 5.0 | 11.0 | 0.00 | 2.80 | 0.00 | 91 | 1007.1 |
| 20260831040020 | 62 | 114 | 4.0 | 16.0 | 0.00 | 2.80 | 0.00 | 91 | 1007.0 |
| 20260831035530 | 62 | 138 | 5.0 | 16.0 | 0.00 | 2.80 | 0.00 | 91 | 1007.1 |
| 20260831035017 | 63 | 166 | 6.0 | 12.0 | 0.00 | 2.80 | 0.00 | 91 | 1007.1 |
| 20260831034521 | 63 | 135 | 5.0 | 15.0 | 0.00 | 2.80 | 0.00 | 91 | 1007.0 |
| 20260831034029 | 63 | 123 | 7.0 | 15.0 | 0.00 | 2.80 | 0.00 | 91 | 1007.1 |
| 20260831033538 | 63 | 173 | 9.0 | 16.0 | 0.00 | 2.80 | 0.00 | 91 | 1007.1 |
| 20260831033023 | 63 | 148 | 8.0 | 14.0 | 0.00 | 2.80 | 0.00 | 90 | 1007.3 |
| 20260831032528 | 63 | 102 | 6.0 | 12.0 | 0.00 | 2.80 | 0.00 | 91 | 1007.2 |
| 20260831032017 | 63 | 134 | 5.0 | 14.0 | 0.00 | 2.80 | 0.00 | 91 | 1007.2 |
| 20260831031527 | 63 | 161 | 7.0 | 14.0 | 0.00 | 2.80 | 0.00 | 91 | 1007.3 |
| 20260831031016 | 63 | 186 | 7.0 | 18.0 | 0.00 | 2.80 | 0.00 | 91 | 1007.3 |
| 20260831030524 | 63 | 163 | 8.0 | 23.0 | 0.00 | 2.80 | 0.00 | 91 | 1007.4 |
| 20260831030023 | 63 | 141 | 12.0 | 23.0 | 0.00 | 2.80 | 0.00 | 91 | 1007.5 |
| 20260831025532 | 63 | 204 | 8.0 | 21.0 | 0.00 | 2.80 | 0.00 | 91 | 1007.5 |
| 20260831025040 | 63 | 136 | 11.0 | 21.0 | 0.00 | 2.80 | 0.00 | 91 | 1007.7 |
| 20260831024528 | 63 | 114 | 8.0 | 15.0 | 0.00 | 2.80 | 0.00 | 91 | 1007.6 |
| 20260831024017 | 63 | 166 | 5.0 | 12.0 | 0.00 | 2.80 | 0.00 | 91 | 1007.6 |
| 20260831023521 | 63 | 172 | 8.0 | 12.0 | 0.00 | 2.80 | 0.00 | 91 | 1007.6 |
| 20260831023027 | 63 | 140 | 6.0 | 12.0 | 0.00 | 2.80 | 0.00 | 91 | 1007.6 |
| 20260831022516 | 63 | 223 | 5.0 | 15.0 | 0.00 | 2.80 | 0.00 | 91 | 1007.6 |
| 20260831022024 | 63 | 203 | 7.0 | 15.0 | 0.00 | 2.80 | 0.00 | 91 | 1007.8 |
| 20260831021532 | 63 | 139 | 7.0 | 13.0 | 0.00 | 2.80 | 0.00 | 91 | 1007.6 |
| 20260831021015 | 63 | 150 | 8.0 | 13.0 | 0.00 | 2.80 | 0.00 | 91 | 1007.6 |
| 20260831020521 | 63 | 162 | 5.0 | 19.0 | 0.00 | 2.80 | 0.00 | 92 | 1007.5 |
| 20260831020023 | 63 | 142 | 7.0 | 19.0 | 0.00 | 2.80 | 0.00 | 92 | 1007.5 |
| 20260831015531 | 63 | 136 | 8.0 | 16.0 | 0.00 | 2.80 | 0.00 | 92 | 1007.6 |
| 20260831015019 | 63 | 144 | 7.0 | 14.0 | 0.00 | 2.80 | 0.00 | 92 | 1007.6 |
| 20260831014523 | 63 | 207 | 6.0 | 14.0 | 0.00 | 2.80 | 0.00 | 92 | 1007.7 |
| 20260831014031 | 63 | 175 | 5.0 | 14.0 | 0.00 | 2.80 | 0.00 | 92 | 1007.7 |
| 20260831013520 | 63 | 122 | 4.0 | 12.0 | 0.00 | 2.80 | 0.00 | 92 | 1007.7 |
| 20260831013027 | 63 | 161 | 7.0 | 12.0 | 0.00 | 2.80 | 0.00 | 92 | 1007.7 |
| 20260831012516 | 63 | 163 | 5.0 | 11.0 | 0.00 | 2.80 | 0.00 | 92 | 1007.6 |
| 20260831012021 | 63 | 135 | 5.0 | 11.0 | 0.00 | 2.80 | 0.00 | 92 | 1007.5 |
| 20260831011549 | 63 | 150 | 5.0 | 12.0 | 0.00 | 2.80 | 0.00 | 92 | 1007.5 |
| 20260831011015 | 63 | 111 | 4.0 | 16.0 | 0.00 | 2.80 | 0.00 | 93 | 1007.7 |
| 20260831010525 | 63 | 118 | 7.0 | 16.0 | 0.00 | 2.80 | 0.00 | 93 | 1007.8 |
| 20260831010042 | 63 | 153 | 7.0 | 12.0 | 0.00 | 2.80 | 0.00 | 93 | 1008.0 |
| 20260831005531 | 63 | 135 | 7.0 | 15.0 | 0.00 | 2.83 | 0.00 | 93 | 1007.8 |
| 20260831005020 | 63 | 191 | 6.0 | 15.0 | 0.00 | 2.83 | 0.00 | 93 | 1007.8 |
| 20260831004526 | 63 | 150 | 8.0 | 13.0 | 0.00 | 2.83 | 0.00 | 93 | 1007.9 |
| 20260831004028 | 63 | 117 | 4.0 | 15.0 | 0.00 | 2.83 | 0.00 | 93 | 1008.0 |
| 20260831003517 | 63 | 147 | 7.0 | 15.0 | 0.00 | 2.83 | 0.00 | 93 | 1007.9 |
| 20260831003023 | 63 | 126 | 6.0 | 12.0 | 0.00 | 2.83 | 0.00 | 93 | 1007.8 |
| 20260831002513 | 63 | 99 | 3.0 | 11.0 | 0.00 | 2.83 | 0.00 | 93 | 1007.8 |
| 20260831002020 | 63 | 140 | 5.0 | 11.0 | 0.00 | 2.83 | 0.00 | 93 | 1007.9 |
| 20260831001543 | 63 | 156 | 7.0 | 11.0 | 0.00 | 2.83 | 0.00 | 93 | 1007.9 |
| 20260831001054 | 63 | 90 | 6.0 | 11.0 | 0.00 | 2.83 | 0.00 | 93 | 1007.9 |
| 20260831000542 | 63 | 167 | 3.0 | 9.0 | 0.00 | 2.83 | 0.00 | 93 | 1008.0 |
| 20260831000024 | 62 | 188 | 6.0 | 9.0 | 0.00 | 2.83 | 0.00 | 93 | 1008.0 |
| 20260830235527 | 62 | 174 | 4.0 | 11.0 | 0.00 | 2.91 | 0.00 | 93 | 1008.1 |
| 20260830235015 | 62 | 181 | 4.0 | 12.0 | 0.00 | 2.91 | 0.00 | 93 | 1008.4 |
| 20260830234525 | 62 | 166 | 7.0 | 12.0 | 0.00 | 2.91 | 0.00 | 93 | 1008.4 |